GFSFLT1_sfc_rhum_105.txt.gz
RH
32 34 38 37 33 34 45 57 46 38 50 60 58 56 61 60 59 45 45 48 74 77 58 60 61 54 52 53 54 54 57 50 47
38 38 36 50 28 36 68 35 54 43 50 55 55 51 58 62 59 59 60 95 70 55 51 59 52 50 52 51 53 54 58 51 55
37 37 41 37 41 38 30 35 34 45 46 50 50 48 49 50 53 55 53 57 59 94 64 61 70 54 53 54 54 55 60 53 57
33 44 47 71 54 69 32 35 38 42 48 53 49 46 48 47 46 45 49 48 51 53 54 57 55 61 59 59 56 57 65 67 67
33 46 48 63 72 60 54 49 43 43 52 56 48 59 51 52 47 46 43 49 47 51 57 60 59 58 58 56 56 59 62 63 47
36 44 44 45 48 69 59 56 58 56 60 64 66 50 48 59 51 48 47 46 47 51 56 57 53 57 60 59 54 55 60 61 54
37 44 48 48 56 60 86 87 86 85 91 88 84 80 76 75 58 49 48 64 50 49 56 58 56 58 60 55 53 52 54 56 59
52 57 52 52 70 66 68 66 71 64 72 77 92 88 86 84 76 62 60 61 63 52 53 55 58 56 65 53 47 44 63 55 58
67 68 64 58 63 65 69 66 64 70 66 70 79 85 83 87 82 73 76 71 66 69 61 59 58 59 60 61 53 95 96 91 58
72 67 66 67 65 63 62 62 64 67 74 70 76 86 88 86 85 84 93 91 82 80 76 70 72 70 71 76 77 93 95 96 68
72 77 76 81 83 79 81 74 76 74 78 75 82 77 78 82 93 93 91 92 96 94 92 79 83 78 74 70 69 88 91 94 74
72 82 86 90 88 89 90 87 86 80 84 83 80 80 78 79 77 89 96 94 90 90 92 91 91 79 71 70 71 85 87 90 73
69 81 86 92 91 91 91 94 92 94 96 94 95 93 89 89 83 94 94 94 96 84 90 94 91 75 69 79 66 79 82 85 53
79 89 90 88 90 94 92 91 93 96 94 96 95 89 80 80 80 85 86 81 81 85 83 83 79 70 70 70 70 65 78 80 66
85 86 86 84 86 92 92 88 92 94 96 94 92 89 84 78 77 68 72 81 86 85 83 82 79 76 61 56 57 72 72 79 79
88 86 88 82 82 91 94 90 83 91 92 86 89 88 84 77 64 64 70 74 80 77 82 77 71 58 51 49 47 48 66 66 66
91 90 90 87 84 79 79 83 86 84 81 82 78 79 78 66 62 60 58 53 58 57 51 50 49 49 48 46 46 41 40 39 40
95 88 82 76 77 82 81 72 69 73 77 77 74 76 68 62 50 50 59 55 54 47 57 60 50 43 40 44 40 47 69 69 41
95 93 86 78 77 68 65 69 72 70 61 71 69 70 64 58 37 39 38 44 47 80 78 84 86 84 63 44 72 78 84 85 85
95 94 92 86 79 73 75 71 68 61 60 68 68 64 65 52 41 30 37 36 37 39 55 79 81 82 81 77 78 80 80 78 82

GFSFLT1_sfc_rhum_111.txt.gz
RH
48 63 64 66 60 57 48 52 59 64 79 87 85 86 87 87 89 98 96 93 98 97 97 98 95 96 78 74 84 80 83 83 86
44 57 56 64 59 71 66 54 64 73 76 78 86 79 87 86 86 93 96 95 95 86 90 92 93 95 88 80 79 78 80 86 83
46 50 56 57 59 72 72 60 76 78 84 78 75 81 78 80 86 89 92 92 96 91 92 85 95 95 88 83 76 73 80 89 80
47 48 48 50 57 67 75 69 78 85 83 86 80 82 73 81 83 79 90 92 96 95 90 95 97 95 92 80 78 81 84 84 80
59 46 45 46 61 80 85 91 79 78 76 80 78 78 72 89 79 79 81 83 86 82 91 95 94 87 90 82 81 84 90 84 84
68 60 45 66 79 84 89 94 93 92 95 91 84 68 76 75 69 72 73 74 76 86 88 93 90 88 87 86 86 83 82 87 84
51 57 43 75 87 89 92 97 94 88 90 93 94 90 87 89 89 75 71 71 66 76 81 87 89 89 87 88 89 91 87 87 87
50 55 57 71 85 87 95 95 97 96 94 96 93 94 93 88 84 90 85 82 76 75 88 84 84 87 88 97 96 89 99 96 95
75 69 68 70 76 88 87 90 87 89 88 90 94 97 96 93 92 87 92 95 92 92 90 88 83 84 90 96 82 94 95 97 96
97 98 98 90 86 89 89 91 86 94 90 93 98 98 96 94 89 88 90 91 92 94 95 94 93 98 95 94 91 86 87 88 96
97 97 97 97 98 98 98 93 90 90 89 90 94 96 92 92 97 95 94 93 93 95 98 97 98 97 96 90 69 84 86 87 94
97 98 98 98 98 98 98 98 97 93 96 97 96 96 96 96 96 96 97 98 97 97 98 98 98 96 91 70 60 83 87 95 96
95 95 97 98 97 97 98 98 98 99 99 98 96 96 95 94 96 98 98 98 98 99 98 98 96 92 76 75 55 77 84 88 97
90 94 93 94 96 98 98 97 96 98 98 99 99 97 96 96 95 94 97 97 98 95 88 85 83 74 67 64 62 59 78 79 76
93 93 92 91 96 98 96 93 96 98 98 99 97 96 95 93 91 91 94 94 93 93 85 90 90 84 70 64 54 70 75 77 75
95 95 95 92 89 89 93 93 89 97 98 96 95 96 97 99 94 90 89 90 89 89 86 85 84 76 72 78 73 60 75 71 72
94 92 92 89 87 81 85 81 83 88 90 92 91 95 97 97 92 81 60 58 62 59 59 63 64 82 70 79 79 68 63 64 73
96 92 87 79 82 85 86 80 78 83 82 80 89 90 86 94 96 91 66 73 87 58 66 67 60 62 62 78 67 61 73 70 64
91 90 88 85 83 80 79 79 82 74 73 81 85 81 76 88 96 92 76 76 84 78 76 78 82 84 59 59 73 74 80 81 82
92 92 89 87 81 78 83 76 72 73 80 76 64 65 74 73 84 81 77 69 66 61 65 78 80 80 78 78 69 72 76 78 80

GFSFLT1_sfc_rhum_114.txt.gz
RH
52 59 64 68 62 58 58 62 71 67 82 90 93 90 91 91 91 96 96 91 97 96 96 95 92 93 90 84 85 81 88 88 91
49 52 64 63 66 66 63 60 70 71 78 82 90 88 90 90 94 93 95 92 92 90 92 91 90 91 87 89 83 82 87 89 88
42 58 66 61 64 73 64 60 68 80 81 81 82 85 86 83 95 93 92 94 96 95 92 91 87 90 92 90 88 84 87 90 84
48 58 61 63 64 75 72 67 74 81 87 86 88 86 90 85 92 93 93 93 94 92 87 89 86 92 91 91 88 86 92 91 85
56 59 59 57 68 81 84 85 77 82 84 84 79 83 79 89 86 90 90 89 92 96 92 92 93 95 94 91 90 89 92 89 87
68 61 54 51 74 86 85 88 88 90 90 89 93 81 87 80 82 88 87 86 93 91 92 91 93 94 92 93 91 93 94 93 93
63 61 52 50 74 82 88 90 92 93 95 96 94 95 94 91 91 86 80 79 87 86 82 87 96 96 95 94 94 93 96 98 94
84 82 76 78 78 84 88 92 92 89 91 93 94 93 96 97 95 93 93 94 92 93 93 92 93 92 97 97 96 96 99 98 96
89 90 96 89 93 94 92 92 93 92 90 92 93 94 97 97 97 96 94 93 92 94 97 96 93 96 96 95 78 87 94 95 98
89 93 97 97 97 94 96 95 93 93 95 96 93 97 97 97 93 94 94 96 95 95 97 98 99 98 96 96 90 84 86 86 95
96 97 98 98 98 98 98 98 96 97 96 96 97 96 97 97 98 97 96 93 94 95 98 98 99 98 96 91 90 86 89 90 96
98 98 98 98 98 99 99 99 99 97 98 98 98 97 97 96 98 98 98 97 96 98 99 99 99 98 95 87 71 85 93 97 96
95 96 97 98 98 98 98 99 99 99 99 99 99 99 99 98 98 99 98 98 99 98 96 98 96 91 69 67 61 81 89 99 97
89 94 95 95 96 99 99 98 98 99 99 99 99 99 99 99 98 99 98 98 99 98 93 87 82 71 66 58 55 57 82 90 94
94 94 92 92 96 98 97 97 97 99 99 99 99 99 99 99 99 98 99 98 97 91 85 89 82 71 58 52 52 68 75 85 87
93 93 93 90 88 90 94 94 93 98 99 98 98 97 98 98 96 96 96 98 96 93 91 92 85 79 76 71 63 61 80 84 83
94 90 90 87 84 82 83 82 83 88 89 95 94 97 96 96 97 97 97 97 92 76 69 73 83 81 74 69 63 58 60 60 61
92 90 84 81 81 86 82 75 78 85 82 78 93 96 94 94 96 96 96 96 97 95 86 71 60 63 66 69 60 51 68 63 56
93 89 84 80 78 75 80 86 82 74 77 81 85 83 88 93 94 90 76 72 75 80 82 82 83 80 59 57 73 74 79 80 80
92 92 91 90 87 81 80 75 77 79 85 72 70 64 66 81 92 84 74 68 55 62 75 78 78 80 79 67 67 75 77 79 80

GFSFLT1_sfc_rhum_117.txt.gz
RH
54 64 60 61 60 59 62 67 69 71 83 88 93 92 93 94 92 96 95 89 96 96 96 94 92 93 91 88 88 85 92 92 94
54 58 61 59 60 63 64 66 71 70 78 80 90 88 93 94 95 95 94 92 93 93 95 91 90 94 91 88 86 89 91 91 91
53 52 69 67 61 65 63 62 69 75 78 77 83 90 94 90 94 95 94 94 95 94 93 90 92 94 92 89 88 90 91 93 89
50 57 68 67 66 66 67 70 69 78 86 85 86 87 90 91 93 94 94 94 92 94 94 92 91 89 92 88 91 92 93 94 90
58 54 58 64 63 76 74 80 70 81 87 86 80 81 86 94 93 94 93 92 91 94 91 92 91 91 94 90 92 93 94 92 88
74 72 70 58 64 80 81 82 82 82 89 87 90 85 93 92 95 96 95 94 92 95 95 93 93 96 94 93 92 93 94 94 93
88 74 71 72 81 89 84 86 87 87 90 92 92 92 94 94 94 94 92 88 93 94 94 93 92 94 94 94 95 94 94 95 95
86 93 96 93 83 86 89 92 91 91 92 94 92 91 93 93 94 95 96 94 94 94 93 90 93 95 97 97 95 96 96 97 95
86 92 97 97 97 92 92 92 93 93 94 93 93 93 93 95 97 97 96 95 96 96 98 98 97 97 97 95 85 87 96 94 98
93 94 97 98 99 99 99 98 98 97 97 98 97 97 97 97 98 98 97 96 96 98 98 98 98 98 97 96 92 86 86 86 95
97 95 98 98 98 99 99 99 98 98 97 97 98 98 98 98 96 98 98 97 97 98 99 99 99 99 98 94 90 85 88 89 95
98 98 98 98 98 99 99 99 99 98 99 98 99 98 98 98 98 98 98 98 97 98 100 99 99 98 98 96 90 87 92 99 98
96 97 98 98 98 98 98 99 99 99 99 99 99 98 97 98 98 98 98 98 99 100 99 99 99 98 95 91 88 88 95 97 98
90 94 95 94 96 99 99 98 98 99 99 99 99 99 99 99 99 99 99 99 100 99 92 82 74 69 60 56 59 71 94 94 90
93 93 92 92 96 98 98 98 98 99 99 99 99 99 99 99 99 99 99 99 99 97 86 81 74 65 55 52 55 81 88 92 92
93 92 92 90 88 87 92 95 97 99 100 98 98 98 98 99 98 99 100 99 99 98 93 83 72 61 55 57 58 59 85 86 84
92 91 91 87 86 85 83 81 86 91 97 95 96 98 99 99 98 99 98 99 99 97 97 91 91 78 72 73 64 57 60 59 58
91 89 83 80 80 87 83 76 77 83 83 88 94 95 93 97 98 97 98 98 98 98 97 95 93 93 77 79 65 50 67 62 52
91 90 86 80 85 84 80 84 87 85 77 80 91 88 82 90 96 94 88 88 89 80 88 87 89 87 78 65 79 79 80 79 78
89 91 87 87 90 83 78 77 77 83 85 71 65 64 64 87 88 77 74 64 57 55 68 69 76 84 85 78 68 82 79 76 78

GFSFLT1_sfc_rhum_123.txt.gz
RH
45 46 42 44 49 51 54 54 55 56 63 70 69 70 75 76 74 61 60 65 62 61 62 60 70 68 72 68 72 68 72 63 60
50 48 42 42 47 49 52 52 57 59 62 66 67 64 71 76 75 74 64 71 71 62 72 64 70 69 70 70 70 75 73 60 69
50 47 55 55 55 48 50 48 50 54 58 62 62 62 65 65 68 73 70 71 73 73 70 74 74 72 69 70 72 72 76 77 70
41 48 50 56 59 49 49 49 47 52 56 60 60 61 64 66 66 70 71 69 70 72 71 73 73 75 74 75 73 72 80 83 74
42 44 55 58 62 60 55 57 53 51 56 58 58 59 66 68 68 69 67 72 71 73 76 74 75 73 74 73 72 74 77 73 64
53 67 69 72 68 68 69 60 73 61 61 58 58 60 63 64 64 64 66 68 70 73 76 75 70 72 76 72 68 75 77 79 74
59 62 74 74 72 66 65 71 77 69 69 84 68 64 65 67 66 63 61 67 72 71 75 76 74 74 72 71 74 73 74 77 80
80 74 68 70 69 74 77 80 80 76 71 90 89 81 80 77 74 71 71 72 74 74 75 75 75 77 73 74 76 67 76 79 81
95 96 95 81 78 78 84 73 72 71 84 92 80 91 81 84 84 86 78 78 77 78 79 79 79 78 76 79 69 94 98 92 76
95 95 96 98 98 96 86 88 93 78 79 85 95 89 86 87 92 90 93 92 87 92 86 86 86 82 80 83 83 85 88 88 72
94 96 96 96 97 97 96 95 92 91 89 90 94 92 96 96 91 96 97 98 97 98 92 90 90 87 86 90 88 87 87 86 73
94 95 95 96 96 97 97 97 95 96 92 93 97 98 96 97 97 97 96 98 98 99 99 99 99 96 91 96 99 98 98 99 92
88 90 93 96 96 95 96 97 96 98 94 93 95 92 94 96 96 97 97 98 99 99 99 99 99 99 96 98 98 99 99 100 98
84 89 89 89 93 97 97 97 98 98 98 98 97 91 84 83 90 93 96 99 99 100 99 99 99 99 99 98 98 97 99 100 99
78 82 84 85 90 94 94 95 97 98 98 97 97 96 97 99 98 98 99 99 99 99 99 99 99 98 98 96 90 93 98 100 100
81 80 83 78 76 80 82 87 94 97 98 97 98 97 98 98 97 98 98 99 99 99 99 99 98 98 98 89 69 73 92 93 91
80 77 74 69 69 72 78 77 79 91 94 94 95 98 98 97 98 99 98 99 98 99 100 99 96 98 98 97 98 95 94 96 94
76 69 64 63 68 72 74 73 76 74 78 90 95 94 96 98 99 99 99 99 100 99 100 100 99 100 98 94 95 88 77 79 77
69 67 66 70 68 72 70 72 70 67 67 80 80 73 80 97 98 94 96 98 98 92 97 99 99 100 97 97 93 93 89 85 84
76 65 64 64 64 64 66 68 68 66 60 59 68 67 73 67 57 60 67 71 62 66 69 83 88 93 96 98 95 85 80 81 78